This is the latest recevied weather packets stored in our database for station/object SP1BMW-13. If no packets are shown the sender has not sent any weather packets the latest 10 day(s).
| Time | Temp. | Humidity | Pressure | Rain* | Wind** | Luminosity | Snow |
|---|---|---|---|---|---|---|---|
| 1787677868 | 22.22° C | 46% | 1018 hPa | 0 mm | 0.89 m/s, 132° | 45 W/m² | - |
| 1787677808 | 22.22° C | 45% | 1018 hPa | 0 mm | 0.45 m/s, 144° | 46 W/m² | - |
| 1787677748 | 22.22° C | 44% | 1017.9 hPa | 0 mm | 0.89 m/s, 46° | 48 W/m² | - |
| 1787677688 | 22.22° C | 44% | 1018.1 hPa | 0 mm | 0 m/s | 49 W/m² | - |
| 1787677628 | 22.22° C | 44% | 1017.9 hPa | 0 mm | 0 m/s | 51 W/m² | - |
| 1787677568 | 22.22° C | 44% | 1018 hPa | 0 mm | 0.45 m/s, 82° | 53 W/m² | - |
| 1787677508 | 22.22° C | 44% | 1017.9 hPa | 0 mm | 0.89 m/s, 79° | 55 W/m² | - |
| 1787677448 | 22.22° C | 44% | 1018 hPa | 0 mm | 0.45 m/s, 34° | 57 W/m² | - |
| 1787677388 | 22.22° C | 44% | 1018 hPa | 0 mm | 0 m/s | 59 W/m² | - |
| 1787677328 | 22.22° C | 43% | 1017.9 hPa | 0 mm | 0 m/s | 62 W/m² | - |
| 1787677268 | 22.78° C | 43% | 1018 hPa | 0 mm | 0.45 m/s, 55° | 64 W/m² | - |
| 1787677208 | 22.78° C | 43% | 1018.1 hPa | 0 mm | 1.79 m/s, 65° | 65 W/m² | - |
| 1787677148 | 22.78° C | 45% | 1018 hPa | 0 mm | 0 m/s | 67 W/m² | - |
| 1787677088 | 22.78° C | 44% | 1018 hPa | 0 mm | 0 m/s | 69 W/m² | - |
| 1787677028 | 22.78° C | 44% | 1018 hPa | 0 mm | 0.89 m/s, 141° | 70 W/m² | - |
| 1787676968 | 22.78° C | 44% | 1018.1 hPa | 0 mm | 0 m/s | 72 W/m² | - |
| 1787676908 | 22.78° C | 43% | 1018 hPa | 0 mm | 0 m/s | 74 W/m² | - |
| 1787676848 | 22.78° C | 43% | 1017.8 hPa | 0 mm | 0.45 m/s, 43° | 76 W/m² | - |
| 1787676788 | 22.78° C | 43% | 1018 hPa | 0 mm | 0.89 m/s, 119° | 78 W/m² | - |
| 1787676728 | 22.78° C | 42% | 1017.9 hPa | 0 mm | 0.89 m/s, 38° | 79 W/m² | - |
| 1787676668 | 22.78° C | 42% | 1017.9 hPa | 0 mm | 0.45 m/s, 41° | 81 W/m² | - |
| 1787676608 | 22.78° C | 42% | 1018.1 hPa | 0 mm | 1.79 m/s, 51° | 83 W/m² | - |
| 1787676548 | 22.78° C | 42% | 1018 hPa | 0 mm | 0.89 m/s, 32° | 85 W/m² | - |
| 1787676488 | 22.78° C | 42% | 1018.1 hPa | 0 mm | 1.79 m/s, 44° | 87 W/m² | - |
| 1787676428 | 22.78° C | 42% | 1018 hPa | 0 mm | 0.89 m/s, 58° | 88 W/m² | - |
* Rain latest hour (hover to see other rain measurements)
** Current wind speed in m/s (hover to see current wind gust speed)